Location: Unspecified
(0.0000°N, 0.0000°E)
Time: 10:04:33
(UTC+00:00)

Falcon 9 debris - Pass Details

Date: 04 June 2020
Orbit: 427 x 434 km, 53.0° (Epoch: 07 July)

Event Time Altitude Azimuth Distance (km) Brightness Sun altitude
Rises 19:36:59 0° 242° (WSW) 2,383 ? -22.6°
Reaches altitude 10° 19:39:43 10° 266° (W) 1,513 ? -23.2°
Maximum altitude 19:41:49 16° 304° (NW) 1,219 ? -23.7°
Drops below altitude 10° 19:43:55 10° 343° (NNW) 1,507 ? -24.2°
Sets 19:46:38 0° 7° (N) 2,368 ? -24.8°
